Weather History for Morrisville, VT

Change the Weather History Date:

Tuesday, June 18, 2013

  Actual Average Record
Temperature  
Mean Temperature 58 °F 63 °F  
Max Temperature 70 °F 75 °F 93 °F (2006)
Min Temperature 45 °F 51 °F 45 °F (2007)
Degree Days  
Heating Degree Days 7 3  
Month to date heating degree days 111 97  
Since 1 June heating degree days 111 97  
Since 1 July heating degree days 7644 8228  
Cooling Degree Days 0 2  
Month to date cooling degree days 18 21  
Year to date cooling degree days 38 29  
Since 1 June cooling degree days 18 21  
Growing Degree Days 8 (Base 50)    
Moisture  
Dew Point 46 °F    
Average Humidity 66    
Maximum Humidity 100    
Minimum Humidity 31    
Precipitation  
Precipitation T in 0.13 in 0.41 in (1998)
Month to date precipitation 4.07 2.27  
Year to date precipitation 16.08 13.89  
Sea Level Pressure  
Sea Level Pressure 29.98 in    
Wind  
Wind Speed 1 mph (NNW)    
Max Wind Speed 9 mph    
Max Gust Speed 14 mph    
Visibility 8 miles    
Events Fog    
T = Trace of Precipitation, MM = Missing Value Source: NWS Daily Summary

Daily Weather History Graph

Daily Weather History Graph

Search for Another Location

Airport:

Trip Planner

Search our weather history database for the weather conditions in past years. The results will help you decide how hot, cold, wet, or windy it might be!

Date:

Astronomy

Jun. 18, 2013 Rise Set
Actual Time 5:05 AM EDT 8:38 PM EDT
Civil Twilight 4:28 AM EDT 9:15 PM EDT
Nautical Twilight 3:39 AM EDT 10:04 PM EDT
Astronomical Twilight 2:35 AM EDT 11:07 PM EDT
Moon 3:10 PM EDT 1:22 AM EDT
Length of Visible Light 16h 47m
Length of Day
15h 33m
Waxing Gibbous, 70% of the Moon is Illuminated
Jun 18
Waxing Gibbous
Jun 23
Full
Jun 30
Last Quarter
Jul 8
New
Jul 15
First Quarter

Hourly Weather History & Observations

Time (EDT) Temp. Dew Point Humidity Pressure Visibility Wind Dir Wind Speed Gust Speed Precip Events Conditions
12:54 AM 57.0 °F 48.0 °F 72% 29.96 in 10.0 mi NW 9.2 mph - N/A   Clear
1:54 AM 52.0 °F 48.0 °F 86% 29.95 in 10.0 mi Calm Calm - N/A   Clear
2:54 AM 48.9 °F 46.9 °F 93% 29.96 in 10.0 mi Calm Calm - N/A   Clear
3:54 AM 48.0 °F 46.0 °F 93% 29.95 in 10.0 mi Calm Calm - N/A   Clear
4:26 AM 46.4 °F 44.6 °F 93% 29.95 in 9.0 mi Calm Calm - N/A   Partly Cloudy
4:39 AM 46.4 °F 44.6 °F 93% 29.95 in 10.0 mi Calm Calm - N/A   Mostly Cloudy
4:46 AM 46.4 °F 44.6 °F 93% 29.95 in 1.5 mi Calm Calm - N/A   Mostly Cloudy
4:48 AM 46.4 °F 46.4 °F 100% 29.95 in 0.5 mi Calm Calm - N/A Fog Fog
4:54 AM 46.9 °F 46.0 °F 97% 29.96 in 0.2 mi Calm Calm - N/A Fog Fog
5:54 AM 46.0 °F 45.0 °F 96% 29.98 in 0.8 mi Calm Calm - N/A   Mist
5:56 AM 46.4 °F 44.6 °F 93% 29.97 in 1.2 mi Calm Calm - N/A   Mostly Cloudy
5:59 AM 46.4 °F 44.6 °F 93% 29.97 in 3.0 mi Calm Calm - N/A   Mostly Cloudy
6:15 AM 46.4 °F 46.4 °F 100% 29.97 in 10.0 mi Calm Calm - N/A   Scattered Clouds
6:54 AM 48.9 °F 48.0 °F 97% 29.98 in 10.0 mi Calm Calm - N/A   Clear
7:54 AM 55.0 °F 50.0 °F 83% 29.99 in 10.0 mi Calm Calm - N/A   Scattered Clouds
8:54 AM 55.9 °F 48.9 °F 77% 30.00 in 10.0 mi Calm Calm - N/A   Mostly Cloudy
9:54 AM 55.9 °F 50.0 °F 80% 30.02 in 10.0 mi Calm Calm - 0.00 in   Overcast
10:54 AM 57.9 °F 50.0 °F 75% 29.99 in 10.0 mi ESE 3.5 mph - N/A   Overcast
11:54 AM 61.0 °F 46.9 °F 60% 30.01 in 10.0 mi NW 4.6 mph - N/A   Scattered Clouds
12:54 PM 63.0 °F 45.0 °F 52% 30.00 in 10.0 mi Calm Calm - N/A   Scattered Clouds
1:54 PM 66.0 °F 45.0 °F 47% 29.99 in 10.0 mi North 3.5 mph - N/A   Scattered Clouds
2:54 PM 68.0 °F 44.1 °F 42% 29.97 in 10.0 mi NNE 5.8 mph - N/A   Scattered Clouds
3:54 PM 66.0 °F 44.1 °F 45% 29.96 in 10.0 mi Calm Calm - N/A   Mostly Cloudy
4:54 PM 68.0 °F 39.9 °F 36% 29.95 in 10.0 mi Variable 4.6 mph - N/A   Clear
5:54 PM 69.1 °F 37.9 °F 32% 29.96 in 10.0 mi NW 4.6 mph - N/A   Clear
6:54 PM 66.0 °F 41.0 °F 40% 29.97 in 10.0 mi NW 4.6 mph - N/A   Clear
7:54 PM 63.0 °F 44.1 °F 50% 29.98 in 10.0 mi NW 3.5 mph - N/A   Clear
8:54 PM 57.0 °F 46.0 °F 67% 29.99 in 10.0 mi Calm Calm - N/A   Clear
9:54 PM 51.1 °F 46.0 °F 83% 30.00 in 10.0 mi Calm Calm - N/A   Clear
10:54 PM 48.9 °F 46.0 °F 90% 30.01 in 10.0 mi Calm Calm - N/A   Clear
11:54 PM 48.0 °F 44.1 °F 86% 30.01 in 10.0 mi Calm Calm - N/A   Clear